Location: Fountain Hills
(33.6120°N, 111.7170°W)
Time: 05:50:19
(UTC-07:00)

Hamsat - Visible Passes

Search period start: 02 September 2015 00:00
Search period end: 12 September 2015 00:00
Orbit: 588 x 623 km, 97.6° (Epoch: 01 September)

Date Brightness Start Highest point End Pass type
(mag) Time Alt. Az. Time Alt. Az. Time Alt. Az.
03 Sep ? 04:29:20 10° ENE 04:31:00 12° E 04:32:55 10° ESE visible
04 Sep ? 04:41:05 10° NE 04:43:54 18° E 04:46:50 10° SE visible
05 Sep ? 04:53:18 10° NE 04:56:44 26° E 05:00:15 10° SSE visible
06 Sep ? 05:05:43 10° NNE 05:09:34 37° E 05:13:26 10° SSE visible
07 Sep ? 05:18:16 10° NNE 05:22:21 54° E 05:26:25 10° S visible
08 Sep ? 05:30:56 10° NNE 05:35:06 81° E 05:39:16 10° S visible
10 Sep ? 04:23:39 10° E 04:24:21 10° E 04:25:21 10° ESE visible
11 Sep ? 04:34:50 10° ENE 04:37:15 15° E 04:39:51 10° SE visible
